Regional Weather Roundup
Issued by NWS Wakefield, VA

Home | Current Version | Previous Version | Graphics & Text | Print | Product List | Glossary On
Versions: 1 2 3 4 5 6 7 8 9 10 11 12 13 14 15 16 17 18 19 20 21 22 23 24 25 26 27
000
ASUS41 KAKQ 200515
RWRAKQ

REGIONAL WEATHER ROUNDUP
NATIONAL WEATHER SERVICE WAKEFIELD VA
100 AM EDT SUN AUG 20 2017

Note: "fair" indicates few or no clouds below 12,000 feet with no
significant weather and/or obstructions to visibility. * = Denotes
station may not report precipitation (e.g., rain,snow,etc.),
thunder or fog.

VAZ042-051-052>054-056-200600-
NORTHERN VIRGINIA

CITY           SKY/WX    TMP DP  RH WIND       PRES   REMARKS
WASH NATIONAL  PTCLDY    73  63  70 NW7       30.00R
DULLES         PTCLDY    67  66  97 CALM      30.00R
FORT BELVOIR   CLOUDY    70  67  89 CALM      30.00R
QUANTICO       PTCLDY    77  68  73 E5        30.00R
FREDERICKSBRG* PTCLDY    73  66  78 CALM      29.99S
STAFFORD*      CLEAR     67  66  97 CALM      30.03S
WARRENTON      PTCLDY    69  65  86 CALM      30.00R
CULPEPER*      CLOUDY    68  65  92 N3        30.01S
MANASSAS*      PTCLDY    69  67  93 S3        30.01R
LEESBURG*      CLEAR     66  66 100 CALM      30.02S
WINCHESTER     CLEAR     63  59  88 CALM      30.03R
FRONT ROYAL*   CLEAR     64  64 100 CALM      30.02R
LURAY*         CLEAR     64  64 100 CALM      30.04R
$$

VAZ048-049-060>072-079>083-200600-
CENTRAL AND SOUTH CENTRAL VIRGINIA

CITY           SKY/WX    TMP DP  RH WIND       PRES   REMARKS
RICHMOND       CLEAR     75  72  90 CALM      29.98R
CHESTERFIELD*  FAIR      73  71  93 CALM      30.00R
PETERSBURG*      N/A     69  69 100 CALM      30.00S FOG
HANOVER        CLEAR     72  69  90 CALM      29.99S
TAPPAHANNOCK*  CLEAR     73  73 100 CALM      29.99S
QUINTON*       FAIR      71  71 100 CALM      29.98S
CHARLOTTSVILLE CLEAR     73  66  78 CALM      30.01R
GORDONSVILLE*  PTCLDY    71  67  89 CALM      30.01R
ORANGE*        CLEAR     68  64  88 CALM      30.01R
LOUISA*        CLEAR     70  66  88 E3        30.00S
BUMPASS*       FAIR      71  71 100 CALM      30.00S
FARMVILLE*     CLEAR     69  68  96 CALM      29.99S FOG
CREWE*         FAIR      68  64  88 CALM      30.00R
FORT PICKETT*  FAIR     N/A N/A N/A CALM      30.00S
CHASE CITY*    FAIR      70  69  99 CALM      30.01R
CLARKSVILLE*   FAIR      70  70 100 CALM      30.00R
SOUTH HILL*    CLEAR     69  69 100 CALM      30.06R
LAWRENCEVILLE* FAIR      70  69  97 CALM      30.00R
EMPORIA*       FOG       70  70 100 CALM      30.01R VSB 1/4
$$

VAZ088>098-200600-
SOUTHEAST VIRGINIA

CITY           SKY/WX    TMP DP  RH WIND       PRES   REMARKS
NORFOLK        CLEAR     77  73  87 SW3       29.97S
VIRGINIA BEACH PTCLDY    76  71  85 SW3       29.97R
NORFOLK NAVAL  CLEAR     76  72  87 CALM      29.99S
WEST POINT*    CLEAR     71  69  94 CALM      29.99S
SALUDA*        FAIR      73  71  92 S3        29.98S
NEWPORT NEWS   CLEAR     70  69  97 CALM      29.98R
LANGLEY AFB    CLEAR     73  71  94 SW3       29.97S
FORT EUSTIS    CLEAR     77  72  85 CALM      29.96R
WILLIAMSBURG*  CLEAR     75  73  94 CALM      29.99S
HR EXEC AP*    FAIR      70  66  88 CALM      29.97R
FRANKLIN*      CLEAR     72  70  95 CALM      29.99R
US460-WAKEFLD  CLEAR     73  72  96 CALM      29.99R FOG
$$

VAZ020-022-025-037-045-200600-
WEST CENTRAL AND SOUTHWEST VIRGINIA

CITY           SKY/WX    TMP DP  RH WIND       PRES   REMARKS
STAUNTON*      CLEAR     66  64  93 CALM      30.07R
WAYNESBORO*    CLEAR     68  65  89 CALM      30.07R
HOT SPRINGS VA CLEAR     64  57  77 CALM      30.19S
LYNCHBURG      CLEAR     68  65  90 CALM      30.03R
DANVILLE       CLEAR     68  68 100 SW3       30.02R
SOUTH BOSTON*  FAIR      69  67  95 CALM      30.01R
MARTINSVILLE   CLEAR     66  65  97 CALM      30.06R
ROANOKE        CLEAR     69  65  86 NW3       30.07R
BLACKSBURG     CLEAR     66  66  98 CALM      30.14S
DUBLIN*        CLEAR     69  65  90 CALM      30.13R
MARION*        CLEAR     64  57  77 CALM      30.17S HAZE
HILLSVILLE*    CLEAR     66  60  81 CALM      30.14S
RICHLANDS*     FAIR      69  60  73 CALM      30.16R
WISE*          PTCLDY    70  61  73 CALM      30.16S
ABINGDON*      CLEAR     67  66  96 CALM      30.12S
$$

MDZ021>025-VAZ099-100-200600-
SOUTHERN MARYLAND AND THE DELMARVA PENINSULA

CITY           SKY/WX    TMP DP  RH WIND       PRES   REMARKS
PATUXENT RIVER PTCLDY    73  69  87 N6        29.99R
BAY BRIDGE APT PTCLDY    73  66  78 CALM      29.99R
LEONARDTOWN    CLEAR     70  68  94 CALM      30.01R
DOVER          PTCLDY    72  66  83 SW3       29.96R
GEORGETOWN     CLEAR     74  70  87 SW5       29.99R
EASTON         CLOUDY    73  68  85 CALM      30.03R
CAMBRIDGE      PTCLDY    70  68  94 CALM      29.99F
SALISBURY      CLEAR     72  70  93 CALM      29.98R
OCEAN CITY     CLEAR     70  69  97 NW3       29.99R
WALLOPS ISLAND CLEAR     75  73  93 S6        29.98S
ACCOMACK*      CLEAR     72  69  92 CALM      29.98S
$$

NCZ012>017-030>032-200600-
NORTH CENTRAL AND EASTERN NORTH CAROLINA

CITY           SKY/WX    TMP DP  RH WIND       PRES   REMARKS
ROANOKE RAPIDS FAIR      72  72 100 CALM      30.00R FOG
RALEIGH        PTCLDY    74  71  91 CALM      30.01S
ELIZABETH CITY CLEAR     74  74 100 SW5       29.99R
AHOSKIE*         N/A     72  72  99 CALM      30.00R FOG
EDENTON*       CLEAR     79  74  86 CALM      29.99S
CURRITUCK*     CLEAR     75  73  93 CALM      29.99R
KILL DEVIL HLS MOCLDY    76  74  93 CALM      29.98S
MANTEO         MOCLDY    78  75  90 W6        30.00R
CAPE HATTERAS  CLEAR     79  77  94 W6        30.00R
TARBORO*       NOT AVBL
GOLDSBORO      CLEAR     74  74 100 CALM      29.99R
WASHINGTON     PTCLDY    74  73  95 SW5       30.00R
GREENVILLE     CLEAR     73  73 100 CALM      30.02R
NEW BERN       CLEAR     73  73 100 S3        30.01S
WILMINGTON     CLEAR     76  75  97 S3        29.99S
$$

VAZ048-200600-
ELSEWHERE

CITY           SKY/WX    TMP DP  RH WIND       PRES   REMARKS
HARRISBURG PA  PTCLDY    66  63  90 NW5       29.99R
BALTIMORE      PTCLDY    68  66  93 W3        29.98S
ANNAPOLIS      CLEAR     75  67  76 CALM      29.98R
ANDREWS AFB    PTCLDY    68  67  95 CALM      29.99R
PHILADELPHIA   PTCLDY    73  59  61 W7        29.96R
HENDERSON NC   CLEAR     69  67  93 CALM      30.01S
GREENSBORO     MOCLDY    74  69  85 CALM      30.03R
ROCKY MOUNT    CLEAR     73  73 100 CALM      30.00S
$$

VAZ100-200600-
MARINE

STATION/POSITION TIME  TEMP    WIND        PRES    WAVE   SWELL
                       AIR SEA DIR/SP/G            HT/PER HT/PER
                 (UTC) (F)     (DEG/KT/KT) (MB)    (FT/S) (FT/S)
BRANDYWINE LGT   0436   78     320/  7/  9 1015.1R
CAPE MAY NJ      0442   78 79  310/  8/ 12 1014.1R
LEWES DE         0436   76 79  280/  8/ 10 1014.8R
15NM E FENWICK I 0450   79 78  220/  8/  8 1015.2R   2/ 7   2/ 7
OCEAN-CITY-INLET 0436   76 77  260/  3/  3 1015.3R
WACHAPREAGUE VA  0436   75 85  260/  2/  2 1015.1F
THOMAS POINT MD  0500   77 81  290/  3/  4   N/A
GOOSES REEF MD   0500   77 81   10/  4/  6 1016.3    1/ 2
COVE POINT MD    0436   76      10/  6/ 12 1016.1R
SOLOMONS ISLAND  0436   76 81   40/  4/  6   N/A
BISHOPS HEAD MD  0436   82 83  260/  7/ 10 1015.5R
PINEY POINT MD   0436          320/  8/  9   N/A
POTOMAC MD       0500   80 82  250/  8/ 10 1014.4    1/ 2
CAMBRIDGE MD     0436   71 83              1016.4R
LEWISETTA VA     0436   78 84  250/  6/  8 1014.9R
RAPPAHANNOCK LGT 0436          190/  9/  9 1015.7S
STINGRAY PT      0500   81 82  250/  8/ 10 1015.3    0
YORK RVR RNG VA  0436   81     210/  8/  9 1015.5R
YORKTOWN VA      0436   78 83  200/  6/  7 1014.7R
JAMESTOWN VA     0500      85  170/  4/  4   N/A
DOMINION TERM VA 0436   79     190/  4/  4 1015.2R
KIPTOPEKE VA     0436      81  200/  2/  3   N/A
CHES BAY BRIDGE  0436   79 80  220/  5/  6 1014.9S
CAPE HENRY VA    0436   77     210/  3/  5   N/A
WILLOUBY STN VA  0436   80     240/  5/  6 1015.1R
S CRANEY ISL VA  0436   79     200/  5/  5 1014.8S
CAPE HENRY BUOY  0500      80                N/A     2/ 7
1ST LANDING BUOY 0500   79 79              1015.1    1
64NM E OF VA BCH 0450   79 79  240/  8/  8 1015.6R   3/ 6   3/ 6
DUCK PIER NC     0436   80 69  210/  8/ 10 1015.0R
44100 DUCK FRF   0405      81                N/A     2/ 7
44056 DUCK FRF   0430      78                N/A     1/10
OREGON INLET NC  0436   80 77  230/  9/ 11 1015.5R
HATTERAS NC      0436   78 80  240/  5/  7 1015.7R
DIAMOND SHLS NC  0450   83 83  210/ 12/ 14 1015.5R   3/ 9   2/ 9
CAPE LOOKOUT NC  0500   81     230/  3/  4 1015.6S
$$




USA.gov is the U.S. government's official web portal to all federal, state and local government web resources and services.